Change the Weather History Date:

Thursday, February 13, 2014

  Actual Average (KCHS) Record (KCHS)
Temperature  
Mean Temperature 38 °F 51 °F  
Max Temperature 42 °F 62 °F 78 °F (1976)
Min Temperature 35 °F 40 °F 22 °F (1955)
Degree Days  
Heating Degree Days 26 14  
Month to date heating degree days 193  
Since 1 July heating degree days 1452  
Cooling Degree Days 0 0  
Month to date cooling degree days 0  
Year to date cooling degree days 2  
Moisture  
Dew Point 37 °F    
Average Humidity 96    
Maximum Humidity 100    
Minimum Humidity 81    
Precipitation  
Precipitation 0.00 in 0.11 in 1.08 in (1959)
Month to date precipitation 1.39  
Year to date precipitation 5.10  
Sea Level Pressure  
Sea Level Pressure 29.70 in    
Wind  
Wind Speed 9 mph (WNW)    
Max Wind Speed 21 mph    
Max Gust Speed 26 mph    
Visibility 7 miles    
Events Rain    
T = Trace of Precipitation, MM = Missing Value Source: NWS Daily Summary

Daily Weather History Graph

Daily Weather History Graph

Search for Another Location

Airport or City:

Trip Planner

Search our weather history database for the weather conditions in past years. The results will help you decide how hot, cold, wet, or windy it might be!

Date:

Astronomy

Feb. 13, 2014 Rise Set
Actual Time 7:05 AM EST 6:03 PM EST
Civil Twilight 6:39 AM EST 6:29 PM EST
Nautical Twilight 6:10 AM EST 6:58 PM EST
Astronomical Twilight 5:42 AM EST 7:26 PM EST
Moon 5:10 PM EST (2/13) 5:56 AM EST (2/13)
Length of Visible Light 11h 49m
Length of Day
10h 58m
Waxing Gibbous, 98% of the Moon is Illuminated
Feb 13
Waxing Gibbous
Feb 14
Full
Feb 22
Last Quarter
Mar 1
New
Mar 8
First Quarter

Hourly Weather History & Observations

Time (EST) Temp. Windchill Dew Point Humidity Pressure Visibility Wind Dir Wind Speed Gust Speed Precip Events Conditions
12:15 AM 37.4 °F 32.8 °F 37.4 °F 100% 29.72 in 8.0 mi NNE 5.8 mph - 0.00 in   Overcast
12:35 AM 37.4 °F 31.4 °F 37.4 °F 100% 29.70 in 7.0 mi NNE 8.1 mph - 0.00 in   Overcast
12:55 AM 37.4 °F - 37.4 °F 100% 29.70 in 6.0 mi Calm Calm - 0.00 in   Overcast
1:15 AM 37.4 °F 31.4 °F 37.4 °F 100% 29.69 in 7.0 mi North 8.1 mph - 0.00 in   Overcast
1:35 AM 37.4 °F 32.1 °F 37.4 °F 100% 29.67 in 7.0 mi North 6.9 mph - 0.00 in   Overcast
1:55 AM 37.4 °F 30.3 °F 37.4 °F 100% 29.67 in 2.5 mi NW 10.4 mph - 0.00 in   Light Drizzle
2:15 AM 35.6 °F 27.5 °F 35.6 °F 100% 29.65 in 2.0 mi NNW 11.5 mph - 0.00 in   Overcast
2:35 AM 35.6 °F 28.6 °F 35.6 °F 100% 29.63 in 1.8 mi NNW 9.2 mph 16.1 mph 0.00 in   Overcast
2:55 AM 35.6 °F 28.0 °F 35.6 °F 100% 29.61 in 1.5 mi North 10.4 mph - 0.00 in   Overcast
3:15 AM 35.6 °F 29.2 °F 35.6 °F 100% 29.61 in 1.8 mi NNW 8.1 mph - 0.00 in Rain Light Rain
3:35 AM 35.6 °F 28.0 °F 35.6 °F 100% 29.62 in 2.5 mi NW 10.4 mph - 0.00 in   Overcast
3:55 AM 35.6 °F 29.9 °F 35.6 °F 100% 29.60 in 2.0 mi NW 6.9 mph - 0.00 in   Light Drizzle
4:15 AM 35.6 °F 29.2 °F 35.6 °F 100% 29.61 in 3.0 mi NNW 8.1 mph - 0.00 in   Overcast
4:35 AM 35.6 °F 29.9 °F 35.6 °F 100% 29.61 in 1.8 mi NW 6.9 mph - 0.00 in Rain Light Rain
4:55 AM 35.6 °F 29.9 °F 35.6 °F 100% 29.62 in 2.0 mi NNW 6.9 mph - 0.00 in   Overcast
5:15 AM 35.6 °F 31.7 °F 35.6 °F 100% 29.61 in 1.5 mi NNW 4.6 mph - 0.00 in   Overcast
5:35 AM 35.6 °F 30.7 °F 35.6 °F 100% 29.62 in 1.8 mi NW 5.8 mph - 0.00 in   Overcast
5:55 AM 35.6 °F 30.7 °F 35.6 °F 100% 29.60 in 2.5 mi NW 5.8 mph - 0.00 in   Overcast
6:15 AM 35.6 °F 32.8 °F 35.6 °F 100% 29.61 in 4.0 mi NW 3.5 mph - 0.00 in   Overcast
6:35 AM 35.6 °F 29.9 °F 35.6 °F 100% 29.61 in 5.0 mi WNW 6.9 mph - 0.00 in   Overcast
6:55 AM 35.6 °F 29.2 °F 35.6 °F 100% 29.63 in 3.0 mi WNW 8.1 mph - 0.00 in   Overcast
7:15 AM 35.6 °F 29.9 °F 35.6 °F 100% 29.64 in 1.2 mi WNW 6.9 mph - 0.00 in   Light Drizzle
7:35 AM 35.6 °F 29.2 °F 35.6 °F 100% 29.64 in 1.0 mi West 8.1 mph - 0.00 in   Overcast
7:55 AM 35.6 °F 28.0 °F 35.6 °F 100% 29.65 in 1.2 mi West 10.4 mph - 0.00 in   Overcast
8:15 AM 35.6 °F 27.1 °F 35.6 °F 100% 29.66 in 1.2 mi West 12.7 mph - 0.00 in   Overcast
8:35 AM 35.6 °F 27.5 °F 35.6 °F 100% 29.65 in 1.2 mi WNW 11.5 mph - 0.00 in   Overcast
8:55 AM 35.6 °F 27.5 °F 35.6 °F 100% 29.66 in 3.0 mi West 11.5 mph - 0.00 in   Overcast
9:15 AM 35.6 °F 29.2 °F 35.6 °F 100% 29.66 in 9.0 mi West 8.1 mph - 0.00 in   Overcast
9:35 AM 35.6 °F 26.6 °F 35.6 °F 100% 29.67 in 10.0 mi West 13.8 mph - 0.00 in   Overcast
9:55 AM 35.6 °F 27.1 °F 35.6 °F 100% 29.67 in 10.0 mi West 12.7 mph 19.6 mph 0.00 in   Overcast
10:15 AM 35.6 °F 27.5 °F 35.6 °F 100% 29.68 in 10.0 mi West 11.5 mph 17.3 mph 0.00 in   Overcast
10:35 AM 37.4 °F 30.8 °F 37.4 °F 100% 29.68 in 10.0 mi West 9.2 mph - 0.00 in   Overcast
10:55 AM 35.6 °F 26.6 °F 35.6 °F 100% 29.68 in 9.0 mi West 13.8 mph 24.2 mph 0.00 in   Overcast
11:15 AM 35.6 °F 27.5 °F 35.6 °F 100% 29.68 in 7.0 mi West 11.5 mph 16.1 mph 0.00 in   Overcast
11:35 AM 35.6 °F 27.1 °F 35.6 °F 100% 29.69 in 10.0 mi West 12.7 mph 25.3 mph 0.00 in   Overcast
11:55 AM 35.6 °F 26.6 °F 35.6 °F 100% 29.68 in 10.0 mi West 13.8 mph 25.3 mph 0.00 in   Overcast
12:15 PM 37.4 °F 28.9 °F 37.4 °F 100% 29.68 in 10.0 mi West 13.8 mph 24.2 mph 0.00 in   Overcast
12:35 PM 37.4 °F 26.9 °F 35.6 °F 93% 29.68 in 10.0 mi West 20.7 mph 26.5 mph 0.00 in   Overcast
12:55 PM 37.4 °F 28.5 °F 35.6 °F 93% 29.68 in 10.0 mi West 15.0 mph - 0.00 in   Overcast
1:15 PM 37.4 °F 28.5 °F 35.6 °F 93% 29.68 in 10.0 mi West 15.0 mph 23.0 mph 0.00 in   Overcast
1:35 PM 37.4 °F 27.8 °F 37.4 °F 100% 29.67 in 10.0 mi West 17.3 mph 26.5 mph 0.00 in   Overcast
1:55 PM 39.2 °F 30.5 °F 37.4 °F 93% 29.67 in 10.0 mi West 16.1 mph 25.3 mph 0.00 in   Overcast
2:35 PM 41.0 °F 32.8 °F 37.4 °F 87% 29.65 in 10.0 mi West 16.1 mph 23.0 mph 0.00 in   Mostly Cloudy
2:55 PM 42.8 °F 36.6 °F 37.4 °F 81% 29.66 in 10.0 mi West 11.5 mph - 0.00 in   Overcast
3:15 PM 42.8 °F 35.1 °F 37.4 °F 81% 29.65 in 10.0 mi West 16.1 mph 23.0 mph 0.00 in   Overcast
3:35 PM 42.8 °F 35.1 °F 37.4 °F 81% 29.66 in 10.0 mi West 16.1 mph 23.0 mph 0.00 in   Overcast
3:55 PM 41.0 °F 33.9 °F 37.4 °F 87% 29.67 in 10.0 mi West 12.7 mph 24.2 mph 0.00 in   Overcast
4:15 PM 41.0 °F 32.2 °F 37.4 °F 87% 29.68 in 10.0 mi West 18.4 mph 25.3 mph 0.00 in   Overcast
4:35 PM 41.0 °F 33.1 °F 37.4 °F 87% 29.68 in 10.0 mi West 15.0 mph 21.9 mph 0.00 in   Overcast
4:55 PM 41.0 °F 33.9 °F 37.4 °F 87% 29.70 in 10.0 mi West 12.7 mph 24.2 mph 0.00 in   Overcast
5:15 PM 41.0 °F 33.5 °F 37.4 °F 87% 29.70 in 10.0 mi West 13.8 mph 17.3 mph 0.00 in   Overcast
5:35 PM 41.0 °F 33.5 °F 37.4 °F 87% 29.72 in 10.0 mi West 13.8 mph 19.6 mph 0.00 in   Overcast
5:55 PM 41.0 °F 34.7 °F 37.4 °F 87% 29.72 in 10.0 mi West 10.4 mph 17.3 mph 0.00 in   Mostly Cloudy
6:15 PM 39.2 °F 34.2 °F 37.4 °F 93% 29.73 in 10.0 mi West 6.9 mph - 0.00 in   Partly Cloudy
6:55 PM 39.2 °F 37.0 °F 37.4 °F 93% 29.76 in 10.0 mi WSW 3.5 mph - 0.00 in   Clear
7:15 PM 39.2 °F - 39.2 °F 100% 29.78 in 10.0 mi Calm Calm - 0.00 in   Clear
7:35 PM 39.2 °F 34.2 °F 39.2 °F 100% 29.78 in 10.0 mi WSW 6.9 mph - 0.00 in   Clear
7:55 PM 39.2 °F 33.6 °F 39.2 °F 100% 29.78 in 10.0 mi WSW 8.1 mph - 0.00 in   Clear
8:15 PM 41.0 °F 35.8 °F 39.2 °F 93% 29.79 in 10.0 mi WSW 8.1 mph - 0.00 in   Clear
8:35 PM 42.8 °F 38.0 °F 39.2 °F 87% 29.80 in 10.0 mi WSW 8.1 mph - 0.00 in   Clear
8:55 PM 42.8 °F 37.5 °F 41.0 °F 93% 29.81 in 10.0 mi WSW 9.2 mph - 0.00 in   Clear
9:15 PM 42.8 °F 38.0 °F 41.0 °F 93% 29.82 in 10.0 mi WSW 8.1 mph - 0.00 in   Clear
9:35 PM 42.8 °F 37.0 °F 41.0 °F 93% 29.82 in 10.0 mi WSW 10.4 mph - 0.00 in   Clear
9:55 PM 42.8 °F 37.0 °F 41.0 °F 93% 29.84 in 10.0 mi WSW 10.4 mph - 0.00 in   Clear
10:15 PM 42.8 °F 36.6 °F 41.0 °F 93% 29.84 in 10.0 mi West 11.5 mph 20.7 mph 0.00 in   Clear
10:35 PM 42.8 °F 36.6 °F 41.0 °F 93% 29.85 in 10.0 mi West 11.5 mph 19.6 mph 0.00 in   Clear
10:55 PM 42.8 °F 36.2 °F 41.0 °F 93% 29.85 in 10.0 mi West 12.7 mph - 0.00 in   Clear
11:15 PM 42.8 °F 37.0 °F 41.0 °F 93% 29.86 in 10.0 mi West 10.4 mph 17.3 mph 0.00 in   Clear
11:35 PM 42.8 °F 37.0 °F 39.2 °F 87% 29.86 in 10.0 mi West 10.4 mph 17.3 mph 0.00 in   Clear
11:55 PM 42.8 °F 37.0 °F 39.2 °F 87% 29.85 in 10.0 mi West 10.4 mph 16.1 mph 0.00 in   Clear